Location: Goll?ig?dem
(16.6773°N, 80.7332°E)
Time: 00:31:04
(UTC+00:00)

Hubble Space Telescope - Pass Details

Date: 05 October 2021
Orbit: 535 x 539 km, 28.5° (Epoch: 25 October)

Event Time Altitude Azimuth Distance (km) Brightness Sun altitude
Exits shadow 23:16:27 36° 237° (WSW) 853 1.3 -17.9°
Maximum altitude 23:18:03 80° 154° (SSE) 543 0.7 -17.5°
Drops below altitude 10° 23:22:10 10° 68° (ENE) 1,779 4.5 -16.6°
Sets 23:24:26 0° 67° (ENE) 2,669 5.6 -16.0°
